Date,TemperatureHighF,TemperatureAvgF,TemperatureLowF,DewpointHighF,DewpointAvgF,DewpointLowF,HumidityHigh,HumidityAvg,HumidityLow,PressureMaxIn,PressureMinIn,WindSpeedMaxMPH,WindSpeedAvgMPH,GustSpeedMaxMPH,PrecipitationSumIn
2013-2-1,34.5,20.0,7.7,17.5,9.1,1.2,82,63,39,30.21,29.94,11,3,17,0.00
2013-2-2,45.9,34.6,27.0,33.0,26.0,15.3,99,72,52,29.95,29.76,11,3,21,0.00
2013-2-3,42.8,30.8,24.8,31.7,25.5,18.3,99,82,48,29.90,29.71,12,2,22,0.00
2013-2-4,64.0,41.3,25.7,48.1,34.5,23.4,99,78,49,29.71,29.47,9,3,17,0.00
2013-2-5,63.0,39.1,23.4,44.4,33.9,23.0,99,84,49,29.84,29.59,9,2,15,0.00
2013-2-6,58.6,41.8,25.3,43.4,35.9,25.1,99,81,55,29.95,29.76,6,2,13,0.00
2013-2-7,60.8,44.4,33.8,52.7,42.4,33.4,99,93,70,29.76,29.54,11,2,20,0.08
2013-2-8,39.9,35.1,29.3,39.7,34.5,29.1,99,98,91,30.07,29.74,9,3,19,0.00
2013-2-9,46.0,35.7,29.5,38.8,33.4,29.2,99,92,71,30.07,29.73,8,2,14,0.14
2013-2-10,59.4,47.5,37.2,59.1,45.2,36.8,99,93,60,29.74,29.31,17,4,34,0.70
2013-2-11,55.4,43.6,31.5,38.8,32.7,27.0,88,67,45,29.85,29.49,14,4,26,0.00
2013-2-12,32.4,28.5,25.7,29.6,27.5,25.3,99,96,88,29.86,29.85,2,0,4,0.00
2013-2-13,59.4,44.7,36.3,40.9,37.1,33.3,99,78,44,29.65,29.51,8,2,14,0.00
2013-2-14,60.6,46.4,37.2,43.6,37.7,33.3,94,74,46,29.75,29.53,6,2,10,0.00
2013-2-15,43.9,35.7,26.6,35.7,25.2,15.3,98,67,38,29.97,29.76,8,3,15,0.00
2013-2-16,41.7,29.0,19.6,19.9,16.4,11.5,87,62,33,29.97,29.87,7,2,11,0.00
2013-2-17,52.5,36.7,17.2,36.6,28.8,13.8,94,75,45,29.88,29.62,6,2,11,0.00
2013-2-18,56.7,46.3,34.2,52.4,44.5,29.4,99,93,83,29.62,29.27,15,6,32,0.09
2013-2-19,41.4,31.3,23.4,29.4,20.6,13.0,90,66,39,30.01,29.62,12,4,24,0.00
2013-2-20,28.6,22.6,16.7,17.4,14.5,10.4,92,71,58,30.11,29.99,7,1,11,0.00
2013-2-21,31.5,25.4,17.8,31.2,24.1,15.7,99,95,84,30.02,29.53,8,1,21,0.00
2013-2-22,37.8,32.1,19.2,37.0,30.3,19.0,99,93,73,29.78,29.51,7,1,12,0.24
2013-2-23,43.7,28.5,15.8,29.6,23.2,15.6,99,83,52,29.77,29.68,3,1,7,0.00
2013-2-24,52.2,40.1,16.3,40.3,31.7,-22.1,99,74,53,29.84,29.72,6,1,9,0.00
2013-2-25,50.9,38.9,27.5,40.9,34.8,27.1,99,86,64,29.77,29.27,8,2,17,0.35
2013-2-26,46.9,37.9,34.0,46.7,37.7,33.7,99,99,99,29.38,29.02,8,3,15,0.57
2013-2-27,36.5,33.3,31.6,36.2,33.1,31.4,99,99,99,29.60,29.37,8,3,16,0.06
2013-2-28,35.2,32.9,31.3,34.8,32.6,31.0,99,99,97,29.81,29.59,8,2,14,0.00